User: anonymous   Login
Location: Unspecified
(0.0000°N, 0.0000°E)
Time: 14:36:58
(UTC+00:00)
Language:

ETS 8 - Orbit

View from above orbital plane
View from above orbital plane
View from above satellite
View from above satellite

Ground track
Ground track

The orbit data is extracted from the following two-line orbital elements,

1 29656U 06059A   16343.54604764 -.00000237  00000-0  00000+0 0  9993
2 29656   5.2104  60.2218 0004777 211.3295 148.4517  1.00272634 36575
Epoch (UTC): 08 December 2016 13:06:18
Eccentricity: 0.0004777
inclination: 5.2104°
perigee height: 35766 km
apogee height: 35806 km
right ascension of ascending node: 60.2218°
argument of perigee: 211.3295°
revolutions per day: 1.00272634
mean anomaly at epoch: 148.4517°
orbit number at epoch: 3657

The dashed part of the orbit path shows where the satellite is in the earth's shadow,  

DLR